Voltar ao catálogo

STARLINK-37756

AtivoComunicaçõesVLEO
NORAD 100047·PAYLOAD·🇺🇸 United States

Lançado Jul 14, 2026 de Cape Canaveral Space Force Station

Loading…

Próximas Passagens (próximas 24 horas)

TLE

AtualizadoSource: Space-Track

Época: Sep 14, 2026, 02:04 UTC

1 A0047U 26161V   26257.08658607  .00014326  00000-0  43425-3 0  9996
2 A0047  53.1630  27.8595 0001127  46.2116 313.8980 15.34404877  9620

Acompanhe STARLINK-37756 em tempo real com AllMySat

Download on the App Store